Location: T�bingen+AIT
(48.5342°N, 9.0700°E)
Time: 22:36:58
(UTC+01:00)

Cosmos 1697 Rocket - Pass Details

Date: 14 September 2017
Orbit: 832 x 844 km, 71.0° (Epoch: 19 November)

Event Time Altitude Azimuth Distance (km) Brightness Sun altitude
Rises 23:40:02 0° 333° (NNW) 3,411 6.9 -34.1°
Reaches altitude 10° 23:42:32 10° 337° (NNW) 2,473 5.9 -34.3°
Enters shadow 23:46:15 40° 356° (N) 1,227 3.8 -34.6°
